Simultaneous Nadir Overpasses (SNOs) Predictions

Prediction of SNOs between AQUA and METOP-B Satellite Orbit:

Table of predicted SNOs for the next 14.0 days since TLE Epoch: 7/10/2015
Index Date (AQUA) Time (AQUA) Lat,Lon (AQUA) SZA (AQUA ) Date (METOP-B) Time (METOP-B) Lat,Lon (METOP-B) SZA (METOP-B ) Distance(km) Time Diff (sec)
1 07/11/2015 03:34:26 73.69, 121.04 51.58 07/11/2015 03:33:37 73.71, 120.95 51.61 3.15 49
2 07/11/2015 04:23:53 -73.79, -71.52 128.31 07/11/2015 04:24:17 -73.79, -71.52 128.31 0.33 24
3 07/13/2015 23:08:39 73.73,-172.60 52.02 07/13/2015 23:07:58 73.71,-172.63 52.01 2.25 41
4 07/13/2015 23:58:06 -73.82, -5.15 127.88 07/13/2015 23:58:38 -73.80, -5.09 127.91 2.96 32
5 07/16/2015 18:42:52 73.74,-106.18 52.47 07/16/2015 18:42:20 73.72,-106.21 52.46 3.05 32
6 07/16/2015 19:32:19 -73.82, 61.28 127.44 07/16/2015 19:33:00 -73.81, 61.34 127.46 2.25 41
7 07/19/2015 13:27:23 -73.01, 154.15 127.83 07/19/2015 13:26:18 -72.93, 151.12 127.76 99.01 65
8 07/19/2015 14:17:05 73.77, -39.79 52.99 07/19/2015 14:16:41 73.76, -39.69 52.99 3.16 24
9 07/19/2015 15:06:31 -73.79, 127.79 126.98 07/19/2015 15:07:22 -73.81, 127.75 126.96 2.41 51
10 07/22/2015 09:01:41 -73.37,-140.13 126.91 07/22/2015 09:00:31 -73.33,-141.60 126.87 47.05 70
11 07/22/2015 09:51:16 73.77, 26.66 53.53 07/22/2015 09:51:02 73.76, 26.70 53.52 1.62 14
12 07/22/2015 10:40:43 -73.84,-165.85 126.39 07/22/2015 10:41:43 -73.81,-165.85 126.43 2.93 60




NCC Satellite Simultaneous Nadir Overpasses (SNOs) Prediction Service
